TimeEDT,TemperatureF,Dew PointF,Humidity,Sea Level PressureIn,VisibilityMPH,Wind Direction,Wind SpeedMPH,Gust SpeedMPH,PrecipitationIn,Events,Conditions,WindDirDegrees,DateUTC
12:54 AM,57.9,51.1,78,29.95,-9999.0,WNW,11.5,23.0,N/A,,Unknown,300,2013-10-08 04:54:00
1:54 AM,57.0,50.0,77,29.97,-9999.0,WNW,12.7,-,N/A,,Unknown,290,2013-10-08 05:54:00
2:54 AM,55.0,48.9,80,29.99,-9999.0,WNW,15.0,25.3,N/A,,Unknown,290,2013-10-08 06:54:00
3:54 AM,53.1,46.0,77,30.02,-9999.0,WNW,15.0,23.0,N/A,,Unknown,290,2013-10-08 07:54:00
4:54 AM,52.0,45.0,77,30.04,-9999.0,WNW,11.5,18.4,N/A,,Unknown,290,2013-10-08 08:54:00
5:54 AM,51.1,45.0,80,30.07,-9999.0,WNW,12.7,-,N/A,,Unknown,290,2013-10-08 09:54:00
6:54 AM,50.0,45.0,83,30.11,-9999.0,WNW,12.7,-,N/A,,Unknown,300,2013-10-08 10:54:00
7:54 AM,51.1,45.0,80,30.14,-9999.0,WNW,9.2,-,N/A,,Unknown,300,2013-10-08 11:54:00
8:54 AM,54.0,46.0,75,30.17,-9999.0,NW,10.4,17.3,N/A,,Unknown,310,2013-10-08 12:54:00
9:54 AM,57.0,44.1,62,30.20,-9999.0,NNW,15.0,20.7,N/A,,Unknown,330,2013-10-08 13:54:00
10:54 AM,59.0,43.0,55,30.22,-9999.0,NW,8.1,17.3,N/A,,Unknown,310,2013-10-08 14:54:00
11:54 AM,61.0,43.0,52,30.22,-9999.0,NW,10.4,18.4,N/A,,Unknown,310,2013-10-08 15:54:00
12:54 PM,63.0,43.0,48,30.22,-9999.0,NW,12.7,20.7,N/A,,Unknown,310,2013-10-08 16:54:00
1:54 PM,64.0,42.1,45,30.22,-9999.0,NNW,8.1,-,N/A,,Unknown,340,2013-10-08 17:54:00
2:54 PM,64.0,39.9,41,30.23,-9999.0,NW,8.1,-,N/A,,Unknown,310,2013-10-08 18:54:00
3:54 PM,62.1,37.9,41,30.25,-9999.0,North,10.4,-,N/A,,Unknown,350,2013-10-08 19:54:00
4:54 PM,61.0,39.0,44,30.27,-9999.0,NW,8.1,-,N/A,,Unknown,320,2013-10-08 20:54:00
5:54 PM,57.0,39.0,51,30.30,-9999.0,North,9.2,-,N/A,,Unknown,360,2013-10-08 21:54:00
6:54 PM,55.9,36.0,47,30.31,-9999.0,North,10.4,-,N/A,,Unknown,360,2013-10-08 22:54:00
7:54 PM,55.0,36.0,49,30.33,-9999.0,North,11.5,19.6,N/A,,Unknown,360,2013-10-08 23:54:00
8:54 PM,54.0,36.0,51,30.35,-9999.0,North,10.4,-,N/A,,Unknown,360,2013-10-09 00:54:00
9:54 PM,52.0,37.0,57,30.37,-9999.0,North,10.4,-,N/A,,Unknown,360,2013-10-09 01:54:00
10:54 PM,51.1,37.0,59,30.38,-9999.0,North,10.4,-,N/A,,Unknown,360,2013-10-09 02:54:00
11:54 PM,50.0,37.0,61,30.39,-9999.0,North,10.4,-,N/A,,Unknown,10,2013-10-09 03:54:00